TIME,DELAY(SENSOR),PRES,T(CTD),SAL,OXYGEN,RAWTEMP,T(OPTODE),TCPHASE,FLUOR,BETA(BETA700),BETA(BETA412),BETA(BETA440),CDOM,C(CSC),ED(ED411.90),ED(ED443.80),ED(ED489.40),ED(ED554.70),LU(LU412.20),LU(LU443.80),LU(LU489.40),LU(LU555.00),COMP,TILTX,TILTX(TILTY),CHECK
1348240919,5805,496.0700073242187500,17.5237998962402340,36.4710998535156250,232.2731018066406200,185.5975952148437500,17.5198402404785160,31.8526802062988280,50,108,95,83,65,14895,2147482742,2147766546,2147559177,2147794605,2147306166,2147476873,2147710957,2148242413,1879,7,12,21591
1348241034,5804,485.2500000000000000,17.5970001220703120,36.4869003295898440,234.5003051757812500,183.1923065185547000,17.5930404663085940,31.7115402221679700,50,107,94,83,66,14897,2147485897,2147764754,2147559899,2147793819,2147311872,2147474532,2147707364,2148240969,1460,7,13,6040
1348241149,5804,474.6000061035156000,17.6723003387451170,36.5004997253418000,236.2001953125000000,180.6920928955078000,17.6691303253173830,31.5956306457519530,50,108,94,84,66,14896,2147486930,2147767478,2147561042,2147796534,2147312118,2147474313,2147708361,2148244278,1443,7,13,46791
1348241267,5804,463.6099853515625000,17.7380008697509770,36.5131988525390600,237.5128021240234400,178.4595031738281200,17.7370796203613280,31.5027103424072270,49,108,94,82,66,14895,2147489444,2147764937,2147557705,2147793362,2147313042,2147478994,2147709878,2148242386,1293,7,13,14944
1348241382,5803,453.0199890136719000,17.7707996368408200,36.5199012756347660,238.1891021728515600,177.4716949462890600,17.7671508789062500,31.4574909210205080,49,107,94,84,65,14893,2147485156,2147766198,2147558784,2147793901,2147316982,2147475446,2147708306,2148246793,1010,7,13,21974
1348241497,5803,442.5599975585937500,17.8257007598876950,36.5275001525878900,238.2866058349609400,175.5451049804687500,17.8257999420166000,31.4269409179687500,50,108,94,83,66,14896,2147486198,2147764507,2147557696,2147791232,2147305170,2147478464,2147706889,2148243355,959,7,12,369
1348241627,5805,430.9599914550781000,17.8642997741699220,36.5348014831543000,238.7835998535156200,174.3065032958984400,17.8635101318359380,31.3866004943847660,50,107,95,83,65,14895,2147485184,2147765001,2147558930,2147792914,2147298176,2147476141,2147706486,2148244059,826,7,12,13446
1348241754,5804,419.7799987792969000,17.9358997344970700,36.5449981689453100,238.3594970703125000,172.0641021728515600,17.9317798614501950,31.3763694763183600,50,109,94,83,65,14895,2147486857,2147763757,2147557229,2147793124,2147306770,2147472877,2147706011,2148242240,364,7,12,54795
1348241883,5803,408.5100097656250000,17.9745006561279300,36.5497016906738300,237.7238006591797000,170.7191009521484400,17.9727306365966800,31.3883895874023440,50,107,93,83,65,14893,2147489947,2147759945,2147557238,2147791789,2147301238,2147470454,2147702710,2148238006,285,7,12,13269
1348242010,5804,397.4100036621094000,18.0471000671386720,36.5587997436523440,236.9389038085937500,168.3791961669922000,18.0439891815185550,31.3943595886230470,50,108,95,83,65,14894,2147484443,2147764233,2147557065,2147792091,2147313353,2147472822,2147707803,2148239862,3570,7,12,34769
1348242137,5804,386.1799926757812500,18.1060009002685550,36.5657997131347660,236.4786987304687500,166.4788970947265600,18.1018600463867200,31.3909492492675780,50,109,94,84,66,14893,2147488877,2147763812,2147558016,2147792832,2147305408,2147473856,2147710701,2148242240,130,7,13,57770
1348242267,5804,374.8399963378906000,18.1508007049560550,36.5721015930175800,235.5798034667968800,164.9519958496093800,18.1483707427978500,31.4132499694824220,50,110,95,84,65,14891,2147489243,2147758656,2147559451,2147792018,2147315812,2147477988,2147710518,2148240228,3037,7,13,12501
1348242382,5805,364.7500000000000000,18.2056007385253900,36.5773010253906250,234.9851989746093800,163.1347045898437500,18.2037200927734380,31.4175605773925780,49,109,93,84,66,14892,2147486820,2147761974,2147557193,2147790144,2147311844,2147477083,2147704356,2148239552,2774,7,13,34777
1348242511,5800,353.5000000000000000,18.2462005615234380,36.5802993774414060,234.5196075439453000,162.0104064941406200,18.2379703521728500,31.4248695373535160,50,107,94,83,66,14890,2147486573,2147763501,2147559680,2147793088,2147306084,2147478957,2147709028,2148239899,2902,7,13,47653
1348242638,5805,342.5899963378906000,18.3038005828857420,36.5833015441894500,233.7321014404297000,159.9992065429687500,18.2992496490478500,31.4356098175048830,49,109,94,83,64,14893,2147491904,2147766774,2147562486,2147791762,2147308544,2147478774,2147708370,2148239670,2688,7,12,8593
1348242777,5804,330.9700012207031000,18.3808002471923830,36.5914993286132800,231.3677062988281200,157.4140014648437500,18.3780193328857420,31.5159091949462900,50,109,93,84,65,14894,2147488777,2147767579,2147566336,2147790400,2147313609,2147478244,2147708736,2148241115,2423,7,13,41940
1348242907,5801,320.6000061035156000,18.4668998718261720,36.5979995727539060,229.3083038330078000,154.4871978759765600,18.4672107696533200,31.5777397155761720,50,110,95,83,65,14893,2147488228,2147765686,2147571949,2147791981,2147305874,2147482688,2147711515,2148239497,2679,7,12,23677
1348243058,5801,309.2900085449219000,18.5396003723144530,36.5950012207031250,229.8746948242187500,152.1927947998047000,18.5371398925781250,31.5190505981445300,50,107,93,83,65,14894,2147488667,2147764854,2147576246,2147789339,2147305526,2147483346,2147711561,2148238637,2672,7,12,62190
1348243206,5804,297.2600097656250000,18.6462001800537100,36.5933990478515600,231.1065979003906200,148.3419036865234400,18.6545391082763670,31.4069194793701170,50,110,94,83,65,14895,2147490441,2147768429,2147585590,2147791369,2147304731,2147487177,2147717275,2148239853,1946,7,13,26074
1348243321,5804,286.1600036621094000,18.7465000152587900,36.5912017822265600,231.2613983154297000,145.3372955322265600,18.7461605072021500,31.3594398498535160,50,108,94,84,65,14896,2147495296,2147775341,2147595757,2147791140,2147306066,2147490230,2147722203,2148236909,1569,6,12,9347
1348243436,5804,275.2600097656250000,18.8090991973876950,36.5825004577636700,234.2299041748047000,143.2653961181640600,18.8093490600585940,31.1880397796630860,50,107,93,82,65,14896,2147489728,2147777270,2147610331,2147791131,2147309696,2147493083,2147732754,2148239396,827,7,12,41771
1348243554,5803,264.0400085449219000,18.9227008819580080,36.5834999084472660,236.6340942382812500,139.7120056152343800,18.9177494049072270,31.0264091491699220,50,110,93,84,65,14893,2147490825,2147783012,2147628589,2147790454,2147308242,2147494857,2147740580,2148239515,3345,7,12,51605
1348243669,5804,253.1799926757812500,19.0524005889892580,36.5894012451171900,237.4138031005859400,135.3793945312500000,19.0499496459960940,30.9324493408203120,50,107,92,84,66,14899,2147490624,2147797394,2147652772,2147790720,2147309467,2147497270,2147758656,2148240502,3153,7,12,21519
1348243784,5805,242.3399963378906200,19.0592002868652340,36.5619010925293000,242.6587066650390600,135.0839996337890600,19.0589694976806640,30.6844692230224600,50,107,92,83,64,14897,2147493440,2147810404,2147694966,2147790537,2147306532,2147512448,2147782189,2148240448,3137,7,12,50670
1348243902,5804,231.4400024414062500,19.1425991058349600,36.5637016296386700,247.1098022460937500,132.5603027343750000,19.1359996795654300,30.4494590759277340,50,108,93,83,64,14895,2147496731,2147833106,2147741229,2147790436,2147316059,2147525385,2147808256,2148243657,2892,7,12,15088
1348244029,5803,219.7400054931640600,19.1935997009277340,36.5624008178710940,248.9819946289062500,130.6849060058593800,19.1932506561279300,30.3414993286132800,50,108,93,84,63,14896,2147502436,2147870921,2147832182,2147791021,2147318326,2147549961,2147861366,2148244105,2533,7,12,13782
1348244146,5805,208.8899993896484400,19.2598991394042970,36.5677986145019500,249.5437927246093800,128.4266967773437500,19.2621994018554700,30.2872200012207030,50,110,94,83,64,14897,2147508955,2147879652,2147831552,2147787803,2147308854,2147560923,2147869732,2148247058,2578,7,12,15919
1348244261,5800,198.3300018310547000,19.3120002746582030,36.5699005126953100,249.1305999755859400,126.8688964843750000,19.3097801208496100,30.2852592468261720,50,110,93,84,63,14897,2147525979,2147977956,2148062153,2147788937,2147324964,2147628123,2148000868,2148257069,1728,7,12,58136
1348244316,5803,193.3699951171875000,19.3481998443603500,36.5741996765136700,249.2028961181640600,125.7423019409179700,19.3441791534423830,30.2673606872558600,50,107,94,83,64,14896,2147531702,2148021165,2148143424,2147790244,2147329161,2147652388,2148049499,2148257142,2470,8,12,58644
1348244371,5803,188.4900054931640600,19.3708000183105470,36.5727996826171900,249.4568939208984400,125.1022033691406200,19.3637409210205080,30.2478008270263670,50,109,94,85,64,14896,2147548827,2148067785,2148248859,2147789193,2147335734,2147683145,2148109001,2148262235,2676,7,12,1917
1348244426,5803,183.6999969482422000,19.4260997772216800,36.5787010192871100,248.8775024414062500,123.0805969238281200,19.4254894256591800,30.2470893859863280,51,111,93,83,63,14894,2147558336,2148132452,2148375789,2147788690,2147340745,2147720219,2148180379,2148265572,2212,7,12,10282
1348244502,5805,177.5800018310547000,19.4741992950439450,36.5853996276855500,248.0169982910156200,121.5242004394531200,19.4730491638183600,30.2652397155761720,52,109,94,82,63,14895,2147582747,2148189266,2148489371,2147787840,2147359744,2147753261,2148234797,2148269284,1707,7,13,60172
1348244557,5803,173.6000061035156200,19.4878997802734380,36.5801010131835940,248.0549011230468800,121.1196975708007800,19.4854106903076170,30.2580795288085940,52,109,95,83,63,14893,2147568164,2148113042,2148300260,2147790427,2147343853,2147700754,2148125010,2148262272,1273,7,12,30984
1348244612,5803,169.7100067138672000,19.5501995086669920,36.5943984985351560,247.3475036621093800,119.1014022827148400,19.5470790863037100,30.2635707855224600,53,111,93,83,63,14892,2147538898,2147935506,2147888694,2147788864,2147335753,2147597924,2147901531,2148247972,986,7,12,55161
1348244667,5803,165.9799957275390600,19.6389999389648440,36.6100006103515600,245.6663970947265600,116.2217025756836000,19.6350994110107420,30.3015403747558600,54,110,94,83,65,14890,2147520841,2147883446,2147760740,2147785380,2147329398,2147559323,2147823277,2148242395,932,7,12,59428
1348244722,5802,162.2899932861328000,19.6851997375488280,36.6206016540527340,243.1932983398437500,114.6871032714843800,19.6820201873779300,30.3932800292968750,55,110,94,83,64,14892,2147529234,2147884288,2147755840,2147788864,2147328301,2147558765,2147813961,2148242861,659,7,12,43774
1348244812,5802,156.9100036621093800,19.7413005828857420,36.6179008483886700,243.4152984619140600,113.8050994873046900,19.7089900970459000,30.3719291687011720,59,111,93,84,64,14888,2147572388,2148018651,2148019236,2147788306,2147352685,2147650029,2147993782,2148255378,623,7,13,2335
1348244879,5804,153.6600036621093800,19.7801990509033200,36.6092987060546900,247.3538055419922000,111.0633010864257800,19.7928295135498050,30.1590995788574220,61,113,95,84,64,14887,2147746084,2148648649,2149289206,2147796470,2147427264,2148010779,2148660589,2148297307,721,7,12,45179
1348244970,5805,149.3999938964843800,19.8698997497558600,36.6026992797851560,252.8760070800781200,108.6196975708007800,19.8675804138183600,29.8847999572753900,65,122,96,86,64,14877,2147818870,2148804132,2149549449,2147795620,2147447561,2148084406,2148772196,2148306797,658,7,12,65493
1348245049,5801,145.9100036621093800,20.0027999877929700,36.6189002990722660,254.7431030273437500,104.6586990356445300,19.9887790679931640,29.7532596588134770,67,119,94,85,65,14870,2147890770,2148948854,2149773686,2147799104,2147480841,2148151524,2148879698,2148314221,511,7,12,47369
1348245119,5804,142.8399963378906200,20.1091995239257800,36.6346015930175800,252.4105072021484400,100.8261032104492200,20.1061000823974600,29.8047790527343750,67,124,95,85,64,14868,2147958710,2149083200,2149989677,2147798299,2147506889,2148229330,2148987584,2148323291,585,7,12,28633
1348245222,5801,138.4700012207031200,20.2597007751464840,36.6545982360839840,247.5251007080078000,96.0372772216796900,20.2527599334716800,29.9577598571777340,74,125,94,86,64,14865,2148092498,2149342134,2150389458,2147801956,2147568173,2148369965,2149193874,2148335844,708,7,12,12458
1348245313,5800,134.7400054931640600,20.3033008575439450,36.6479988098144500,246.1336059570312500,94.4468994140625000,20.3014907836914060,29.9990501403808600,76,125,97,86,65,14856,2148233371,2149594934,2150781915,2147808502,2147629028,2148508123,2149393206,2148350125,834,7,12,10454
1348245418,5805,130.5200042724609400,20.4673004150390620,36.6679992675781250,246.6773986816406200,90.5353164672851600,20.4213600158691400,29.9245090484619140,81,123,98,86,65,14854,2148430665,2149953033,2151326509,2147811181,2147714532,2148694829,2149656155,2148371520,792,8,12,59385
1348245521,5805,126.6900024414062500,20.5834999084472660,36.6719017028808600,243.7149963378906200,85.5357131958007800,20.5746498107910160,29.9931297302246100,96,130,96,88,64,14844,2148685805,2150395821,2151981339,2147819254,2147822409,2148905252,2149958326,2148392804,861,7,12,22189
1348245624,5802,123.1500015258789000,20.6714000701904300,36.6764984130859400,242.7754058837890600,82.6820602416992200,20.6621894836425780,29.9986705780029300,102,134,96,87,62,14836,2148962093,2150859977,2152642541,2147831990,2147931611,2149110820,2150227776,2148415597,282,7,12,14689
1348245747,5806,118.5899963378906200,20.8024005889892580,36.6801986694335940,242.9868011474609400,78.5732879638671900,20.7882804870605470,29.9366092681884770,114,135,96,86,65,14818,2149461732,2151671926,2153789869,2147850285,2148125312,2149449636,2150681453,2148456246,61,7,12,5115
1348245826,5806,114.7399978637695300,20.9009990692138670,36.6829986572265600,242.6338043212890600,75.3649902343750000,20.8867893218994140,29.9112606048584000,123,139,97,87,63,14813,2150003501,2152547666,2155001801,2147868745,2148324370,2149772141,2151127058,2148495835,3519,7,13,7076
1348245917,5804,110.7300033569336000,21.0067005157470700,36.6824989318847660,242.5540008544922000,72.1724319458007800,20.9848403930664060,29.8739490509033200,135,140,97,87,65,14796,2150817426,2153795876,2156681545,2147902134,2148586166,2150178203,2151679085,2148552155,2650,7,12,59806
1348246022,5802,106.6600036621093800,21.1403007507324220,36.6762008666992200,243.8291015625000000,67.6831588745117200,21.1228008270263670,29.7593498229980470,143,140,99,87,65,14783,2151803209,2155299794,2158604928,2147937965,2148913508,2150669129,2152318308,2148615030,3069,7,12,55916
1348246125,5806,103.2699966430664000,21.3763008117675780,36.6735992431640600,245.3939971923828000,60.2142410278320300,21.3525104522705080,29.5946807861328120,146,138,97,87,64,14784,2152897773,2156907291,2160595949,2147975186,2149282212,2151199771,2153045632,2148687908,2190,7,12,42486
1348246348,5804,99.2099990844726600,21.5596008300781250,36.6805000305175800,246.6596069335937500,53.5821685791015600,21.5566806793212900,29.4547195434570300,157,140,99,88,64,14750,2153819858,2158049764,2161576539,2148018212,2149487981,2151329389,2153042066,2148707501,2875,7,13,4702
1348246415,5804,96.5899963378906200,21.6805992126464840,36.6757011413574200,247.4604949951172000,49.6447181701660160,21.6779899597167970,29.3698406219482420,149,140,98,88,65,14744,2155016365,2159405284,2162580516,2148041051,2149804489,2151599862,2153164397,2148739181,2124,7,13,18113
1348246470,5805,94.5199966430664000,21.8409004211425780,36.6725006103515600,249.3742980957031200,45.7322502136230500,21.7985897064209000,29.2371597290039060,137,137,97,87,64,14749,2158335908,2164675885,2169601088,2148179958,2150967341,2153635053,2156130578,2149008768,2358,8,13,45717
1348246525,5803,92.8000030517578100,21.9344997406005860,36.6684989929199200,250.0413055419922000,43.6871109008789060,21.8616695404052730,29.1824703216552730,138,137,97,87,63,14735,2158463049,2164494500,2168721718,2148177709,2151025755,2153588141,2155913581,2148999689,2615,7,12,61900
1348246580,5805,91.2900009155273400,22.0167007446289060,36.6702003479003900,251.4864959716797000,39.4668197631835940,21.9918804168701170,29.0674095153808600,126,136,97,87,62,14752,2156377920,2160590089,2162822061,2148070921,2150308873,2152127396,2153595593,2148791533,2519,7,13,49780
1348246658,5804,88.9100036621093800,22.1179008483886720,36.6668014526367200,253.2733001708984400,35.4293518066406250,22.1165409088134770,28.9408302307128900,108,136,97,88,62,14766,2162188169,2169236004,2173604470,2148327414,2152325942,2155350820,2157907291,2149217133,2422,7,12,8411
1348246713,5804,86.6900024414062500,22.2621002197265620,36.6726989746093750,253.5372924804687500,31.4070301055908200,22.2408103942871100,28.8793296813964840,102,133,98,87,65,14766,2166446985,2174675172,2179354861,2148496292,2153848731,2157475264,2160324461,2149470436,1810,7,12,54702
1348246768,5804,84.7699966430664000,22.3388004302978500,36.6722984313964840,253.8072052001953000,28.7604999542236330,22.3226203918457030,28.8349800109863280,97,134,96,88,62,14768,2168746816,2177116059,2181407396,2148589741,2154786139,2158673910,2161474176,2149598500,1706,7,13,22773
1348246823,5801,82.9700012207031200,22.5772991180419920,36.6847000122070300,254.7315979003906200,21.0329303741455080,22.5616893768310550,28.7000198364257800,97,132,99,89,61,14767,2171927369,2180770651,2184836982,2148724964,2156134116,2160363620,2163125312,2149781220,1741,7,12,59801
1348246890,5805,81.3700027465820300,22.7045993804931640,36.6972007751464840,268.0463867187500000,17.0675506591796880,22.6844997406005860,28.1086502075195300,89,140,97,89,59,14776,2173923154,2182975524,2186761581,2148802294,2157428854,2161847003,2164424356,2149917988,1351,7,12,35145
1348246981,5804,78.8199996948242200,22.8617000579834000,36.7004013061523440,275.0219116210937500,11.7110395431518550,22.8505096435546880,27.7720394134521500,89,135,98,90,60,14757,2178670665,2188523446,2192088630,2149069202,2160535168,2165450605,2167553609,2150237833,989,7,12,55046
1348247036,5803,76.7200012207031200,22.9668998718261720,36.6847000122070300,272.7691955566406000,7.8532581329345700,22.9701805114746100,27.8116302490234380,89,135,98,89,61,14754,2182846098,2193029842,2196128283,2149277705,2162884077,2168187977,2169997604,2150481545,962,7,12,56428
1348247091,5804,75.0299987792968800,23.1403999328613280,36.6766014099121100,274.4164123535156000,2.3966341018676760,23.1395797729492200,27.6819896697998050,82,134,100,90,60,14748,2186081408,2196558144,2199242861,2149473142,2164948562,2170466486,2171797504,2150680512,606,7,12,40769
1348247158,5804,73.5699996948242200,23.4736003875732420,36.6596984863281250,277.0302124023437500,-7.2882499694824220,23.4406700134277340,27.4652690887451170,78,135,99,90,59,14757,2188473408,2199222445,2201856969,2149648704,2167036187,2172901476,2174033353,2150893065,796,7,12,31908
1348247273,5802,72.3000030517578100,23.5128993988037100,36.6147003173828100,279.8175964355469000,-9.6597070693969730,23.5144805908203120,27.3319892883300780,75,134,99,90,58,14748,2188205476,2198105728,2199943725,2149607926,2167308406,2172525010,2172755629,2150765074,933,8,12,48145
1348247364,5805,70.5800018310546900,23.7192993164062500,36.6049995422363300,279.5378112792969000,-15.6836996078491210,23.7021198272705080,27.2700290679931640,77,140,99,90,60,14748,2194108928,2205057289,2207306624,2150086720,2172027648,2178229924,2178308516,2151318345,939,7,12,62466
1348247586,5804,68.5299987792968800,24.2803993225097660,36.6203002929687500,276.7803955078125000,-33.2919616699218750,24.2519207000732420,27.1619091033935550,75,137,100,91,57,14741,2198416091,2209459894,2211165330,2150404544,2176501577,2182859520,2181857298,2151676836,945,8,12,65447
1348247737,5806,66.8300018310546900,24.3351001739501950,36.5329017639160160,276.7543029785156000,-36.0703811645507800,24.3388595581054700,27.1296501159667970,74,136,98,90,58,14742,2192825216,2201494006,2201554523,2150065773,2174920804,2180019611,2178044589,2151256347,861,8,12,46769
1348247912,5805,65.2699966430664000,24.7985992431640620,36.4388999938964840,274.8103942871094000,-47.0579795837402340,24.6831798553466800,27.0713005065917970,72,141,101,90,60,14722,2205841746,2217809536,2219519771,2151062400,2183776905,2190471762,2187802331,2152271049,1029,7,12,58211
1348248075,5804,63.7900009155273440,24.8094997406005860,36.4444007873535160,273.0079956054687500,-52.3589210510253900,24.8495903015136720,27.0760307312011720,72,141,100,91,59,14724,2209489472,2221793170,2223570130,2151502089,2186793225,2193757330,2190666020,2152617078,812,8,12,9422
1348248250,5804,61.3899993896484400,25.3328990936279300,36.4257011413574200,269.3631896972656000,-66.0024032592773400,25.2788295745849600,27.0521507263183600,71,139,99,93,58,14718,2217989120,2230736420,2232298240,2152369453,2194138020,2201429696,2197340918,2153345517,1586,8,12,19805
1348248532,5802,59.3300018310546900,25.7469005584716800,36.4063987731933600,265.1841125488281000,-81.5686569213867200,25.7702598571777340,27.0278301239013670,69,146,98,92,55,14702,2220709979,2233038253,2233216027,2152719488,2197604827,2204582134,2199124416,2153545974,2798,7,11,21149
1348248862,5805,57.4700012207031250,26.4561004638671880,36.3563003540039060,261.2604064941406000,-100.1364974975586000,26.3589401245117200,26.9597606658935550,69,140,100,93,58,14681,2227518994,2241086482,2241473042,2153542994,2205398125,2212524434,2205055661,2154198646,193,8,12,23981
1348249120,5805,55.5200004577636700,26.5599002838134770,36.3231010437011700,256.3923950195312500,-106.2238006591796900,26.5525398254394530,27.0811691284179700,68,142,99,92,57,14691,2230282669,2243470235,2243688411,2154123922,2209096054,2215999323,2207604864,2154595565,588,8,12,33574
1348249286,5806,53.1699981689453100,26.5951995849609380,36.3003997802734400,249.4028930664062500,-107.8777008056640600,26.6051998138427730,27.3476505279541000,69,142,99,91,58,14688,2239072082,2251698523,2251468306,2155340937,2216331300,2223419529,2213754011,2155364534,992,7,12,62170
1348249359,5805,51.8400001525878900,26.6380996704101560,36.2905006408691400,246.0852966308593800,-109.1501998901367200,26.6457290649414060,27.4714393615722660,69,142,98,91,58,14692,2244840548,2257053814,2256423753,2156063725,2220245814,2227731611,2217796589,2155900772,1289,8,11,62595
1348249739,5803,49.9199981689453100,27.5440006256103500,36.1188011169433600,236.4145965576172000,-137.7158966064453000,27.5592803955078120,27.5416908264160160,64,135,97,90,55,14690,2251564525,2263277494,2260956653,2157123867,2225276818,2232222198,2220273773,2156359561,229,8,12,45203
1348250126,5805,47.8400001525878900,27.6245002746582030,36.1008987426757800,234.7494964599609400,-139.8708953857422000,27.6284904479980470,27.5889301300048830,63,133,96,91,56,14702,2272928713,2286763995,2286297728,2160809910,2246995885,2254523757,2239568777,2158856603,2056,8,11,50445
1348250195,5804,45.8199996948242200,27.6271991729736330,36.0961990356445300,234.6221923828125000,-140.0018005371093800,27.6326999664306640,27.5928993225097660,60,130,96,90,57,14709,2212491081,2215106788,2209464045,2153360173,2206663378,2207775744,2195397385,2153443629,3409,8,11,4210
1348250264,5803,43.4799995422363300,27.6277008056640620,36.0922012329101560,234.4951019287109400,-140.2006988525390600,27.6390895843505860,27.5962009429931640,60,134,96,88,59,14699,2228267940,2232971776,2228451337,2156239268,2221281078,2222428297,2207455945,2155038985,3558,8,12,44962
1348250333,5803,40.7700004577636700,27.6317005157470700,36.0923004150390600,234.3247070312500000,-140.1623992919922000,27.6378593444824220,27.6042308807373050,59,134,95,90,55,14704,2239208932,2244453046,2241006930,2159497892,2227701494,2226610459,2209276928,2155917924,3357,8,12,52294
1348250378,5802,38.4000015258789060,27.6333007812500000,36.0910987854003900,234.3605957031250000,-140.1878967285156200,27.6386795043945300,27.6023197174072270,58,129,96,90,60,14701,2208242011,2207793298,2201711131,2154441810,2208656704,2205277741,2190281133,2153275200,3185,8,12,30473